User: anonymous   Login
Location: Aiyekoto
(8.4333°N, 4.3667°E)
Time: 16:23:34
(UTC+00:00)
Language:

CZ-3 R/B - Orbit

View from above orbital plane
View from above orbital plane
View from above satellite
View from above satellite

Ground track
Ground track

The orbit data is extracted from the following two-line orbital elements,

1 29517U 06048B   20225.12588975  .00000461  00000-0  10226-3 0  9993
2 29517  28.3608 147.7798 4232157 319.8018  15.5299  6.87410854246613
Epoch (UTC): 12 August 2020 03:01:16
Eccentricity: 0.4232157
inclination: 28.3608°
perigee height: 361 km
apogee height: 10250 km
right ascension of ascending node: 147.7798°
argument of perigee: 319.8018°
revolutions per day: 6.87410854
mean anomaly at epoch: 15.5299°
orbit number at epoch: 24661

The dashed part of the orbit path shows where the satellite is in the earth's shadow,  

DLR